SL-14 DEB, 45299

Orbit data source: Space-Track

SL-14 DEB, 45299 is space debris in LEO originally from a launch on Thu, 15 Aug 1991 UTC launched from the Plesetsk Missile And Space Complex (PKMTR). Debris objects in space refer to the collection of defunct objects orbiting the Earth. Examples of debris include non-operational satellites, rocket bodies, and fragments generated from explosions, collisions, or faulty payload assembly.

Loading next visibility...
SL-14 DEB details
Identifier
45299, 1991-056AM
Orbit
LEO
Last TLE update21 hours ago
Origin
Flag of CISRosgidromet (CIS)
ManufacturerUnknown
MissionSpacecraft
Bus & MotorUnknown
MassUnknown
Launch date (UTC)
1991-08-15 (33 years ago)
Launch vehicleUnknown
Launch site
Plesetsk Missile And Space Complex (PKMTR)
Object type
Payload
Rocket body
Debris
Shape & HBRUnknown
Radar Cross SectionMedium (>0.1 m² and <1 m²)

Expand to show TLE details & history

TLE from 21 hours ago
0 SL-14 DEB
1 45299U 91056AM  24360.57418235  .00002283  00000-0  61932-2 0  9998
2 45299  82.6425 190.6090 0119611 276.5621  82.1893 13.11339096232139
Epoch: 2024-12-25T13:46Z
Definitive object data (Epoch: 2024-12-25T13:46:49.355Z)
Latitude-0.00007°
Longitude-110.66263°
Altitude1,209.505 km
Speed7.255 km/s
True Right ascension12h 42m 26s
True Declination0° 00' 00"
Sunlit
Object was in daylight at TLE epoch
Visualization TLE readout
Latitude32.84858°
Longitude63.97699°
Altitude1,276.773 km
Speed7.194 km/s
Apparent Right ascension23h 21m 17s
Apparent Declination0° 19' 33"
Sunlit
Object is in daylight
Visualization observer readout
Local Sidereal Time10:02:09
Azimuth330.903° NNW
Elevation-45.895°
Doppler factor1
Orbital elements
Apogee altitude1,306.057 km
Perigee altitude1,124.407 km
Semi-major axis7,593.369 km
Eccentricity0.0119611
Inclination82.6425°
RAAN190.609°
Arg. of periapsis276.5621°
True anomaly83.54986°
Mean anomaly82.1893°
Eccentric anomaly82.86932°
Mean motion3.28013 °/min
BSTAR0.0061932
Orbital period109.75 mins
Loading maneuver chart data...
Loading historical data...
Loading historical data...
Loading historical data...
Loading historical data...
Loading historical data...
Loading historical data...
Loading historical data...

SL-14 DEB Visibility forecast

Observer location: undefined°, undefined

Span
Click to sort rows by Start time (UTC) header in descending order
Start Az.
Max El. time (UTC)
Max El. Az.
Max El.
End time (UTC)
End Az.
8 mins2024-12-26 11:53:55.774Z111.857° ESE2024-12-26 11:57:55.774Z78.334° E16.259°2024-12-26 12:01:55.774Z45.368° ENE
13 mins2024-12-26 13:41:55.774Z189.027° SSW2024-12-26 13:47:55.774Z333.688° NNW44.573°2024-12-26 13:54:55.774Z6.301° NNE
6 mins2024-12-26 15:36:55.774Z276.064° WNW2024-12-26 15:39:55.774Z301.951° NW14.914°2024-12-26 15:42:55.774Z326.261° NNW
10 mins2024-12-26 23:21:55.774Z24.022° NE2024-12-26 23:26:55.774Z73.327° E23.888°2024-12-26 23:31:55.774Z119.067° SE
13 mins2024-12-27 01:11:55.774Z341.963° N2024-12-27 01:17:55.774Z262.537° W40.985°2024-12-27 01:24:55.774Z191.411° SSW
|